Location: ??
(31.9467°N, 34.8903°E)
Time: 17:36:58
(UTC+00:00)

COSMO-SKYMED 1 - Pass Details

Date: 29 October 2020
Orbit: 621 x 623 km, 97.9° (Epoch: 30 November)

Event Time Altitude Azimuth Distance (km) Brightness Sun altitude
Rises 15:27:43 0° 15° (NNE) 2,904 5.7 -8.0°
Reaches altitude 10° 15:29:56 10° 19° (NNE) 1,994 4.9 -8.4°
Maximum altitude 15:34:14 64° 101° (E) 689 2.6 -9.3°
Drops below altitude 10° 15:38:31 10° 183° (S) 1,981 5.3 -10.2°
Sets 15:40:42 0° 186° (S) 2,883 6.2 -10.7°
